FW2567 Weather Reports


time (UTC)temp
C
wind
direction
speed
KPH
gust
KPH
rain 1hr
cm
rain 24hr
cm
rain mn
cm
humidity
%
barometer
mb
20260506000106 26 325 9.7 17.7 0.00 0.00 0.00 44 1013.7
20260505234539 26 319 8.0 19.3 0.00 0.00 0.00 45 1013.8
20260505233103 26 10 6.4 12.9 0.00 0.00 0.00 44 1013.8
20260505230036 25 61 8.0 20.9 0.00 0.00 0.00 50 1013.9
20260505223030 24 53 9.7 20.9 0.00 0.00 0.00 50 1014.1
20260505221531 25 44 9.7 22.5 0.00 0.00 0.00 48 1014.3
20260505220036 24 23 8.0 16.1 0.00 0.00 0.00 48 1014.3
20260505213033 23 25 8.0 20.9 0.00 0.00 0.00 51 1014.5
20260505211530 23 20 8.0 17.7 0.00 0.00 0.00 52 1014.6
20260505210030 22 30 8.0 19.3 0.00 0.00 0.00 51 1014.8
20260505203033 22 7 6.4 14.5 0.00 0.00 0.00 50 1015.1
20260505201530 23 25 9.7 17.7 0.00 0.00 0.00 49 1015.1
20260505200107 22 19 6.4 14.5 0.00 0.00 0.00 48 1015.2
20260505194530 23 17 8.0 17.7 0.00 0.00 0.00 47 1015.2
20260505193107 23 7 6.4 14.5 0.00 0.00 0.00 47 1015.3
20260505191531 23 27 6.4 12.9 0.00 0.00 0.00 47 1015.4
20260505190030 23 20 6.4 12.9 0.00 0.00 0.00 47 1015.4
20260505184606 22 21 6.4 16.1 0.00 0.00 0.00 46 1015.5
20260505183030 22 346 4.8 12.9 0.00 0.00 0.00 46 1015.6
20260505181531 22 347 4.8 12.9 0.00 0.00 0.00 47 1015.6
20260505180112 22 354 4.8 11.3 0.00 0.00 0.00 47 1015.5
20260505174535 21 317 4.8 12.9 0.00 0.00 0.00 49 1015.5
20260505171531 21 311 4.8 12.9 0.00 0.00 0.00 49 1015.4
20260505170032 21 42 3.2 16.1 0.00 0.00 0.00 49 1015.4
20260505164530 21 40 3.2 8.0 0.00 0.00 0.00 50 1015.4
20260505161537 21 65 0.0 3.2 0.00 0.00 0.00 54 1015.4
20260505153030 18 67 1.6 4.8 0.00 0.00 0.00 62 1015.4
20260505151644 18 66 1.6 4.8 0.00 0.00 0.00 65 1015.4
20260505140156 10 147 1.6 4.8 0.00 0.00 0.00 92 1015.2
20260505124530 6 161 1.6 6.4 0.00 0.00 0.00 93 1014.5
20260505123031 7 153 1.6 6.4 0.00 0.00 0.00 92 1014.5
20260505120030 7 157 0.0 4.8 0.00 0.00 0.00 91 1014.3
20260505113029 7 156 1.6 4.8 0.00 0.00 0.00 90 1014.3
20260505111534 7 156 1.6 4.8 0.00 0.00 0.00 89 1014.2
20260505100107 9 174 1.6 6.4 0.00 0.00 0.00 83 1013.9
20260505094530 10 179 3.2 6.4 0.00 0.00 0.00 82 1013.8
20260505091604 11 173 4.8 9.7 0.00 0.00 0.00 77 1013.7
20260505090030 12 16 1.6 4.8 0.00 0.00 0.00 75 1013.6
20260505084537 13 137 3.2 9.7 0.00 0.00 0.00 74 1013.6
20260505083030 13 203 6.4 12.9 0.00 0.00 0.00 75 1013.6
20260505081529 14 181 4.8 11.3 0.00 0.00 0.00 73 1013.6
20260505080031 15 167 4.8 22.5 0.00 0.00 0.00 73 1013.6
20260505073031 15 242 6.4 19.3 0.00 0.00 0.00 73 1013.4
20260505071532 15 246 6.4 14.5 0.00 0.00 0.00 74 1013.4
20260505070031 15 216 6.4 16.1 0.00 0.00 0.00 74 1013.3
20260505064532 15 204 4.8 12.9 0.00 0.00 0.00 73 1013.2
20260505063028 16 184 4.8 8.0 0.00 0.00 0.00 71 1013.3
20260505061534 16 232 4.8 19.3 0.00 0.00 0.00 71 1013.3
20260505060031 16 215 6.4 14.5 0.00 0.00 0.00 71 1013.3
20260505054530 15 218 6.4 19.3 0.00 0.00 0.00 72 1013.4
20260505053106 15 213 6.4 17.7 0.00 0.00 0.00 71 1013.2
20260505051528 15 180 1.6 8.0 0.00 0.00 0.00 69 1013.2
20260505040042 17 226 6.4 16.1 0.00 0.00 0.00 57 1012.4
20260505034530 17 228 4.8 14.5 0.00 0.00 0.00 54 1012.2
20260505033030 17 228 4.8 16.1 0.00 0.00 0.00 52 1011.9
20260505031531 18 211 6.4 19.3 0.00 0.00 0.00 51 1011.7
20260505030032 19 226 4.8 14.5 0.00 0.00 0.00 49 1011.5
20260505024530 20 201 4.8 17.7 0.00 0.00 0.00 47 1011.4
20260505023146 21 201 6.4 16.1 0.00 0.00 0.00 46 1011.3
20260505021531 22 212 3.2 9.7 0.00 0.00 0.00 45 1011.3
20260505020029 22 232 3.2 12.9 0.00 0.00 0.00 43 1011.2
20260505014533 23 242 6.4 16.1 0.00 0.00 0.00 41 1011.2
20260505013031 23 263 6.4 17.7 0.00 0.00 0.00 39 1011.1
20260505011531 25 261 8.0 19.3 0.00 0.00 0.00 36 1011.0
20260505010106 25 256 8.0 22.5 0.00 0.00 0.00 36 1011.1
20260505004529 26 264 8.0 22.5 0.00 0.00 0.00 35 1011.0